User: anonymous   Login
Location: Lafig�re
(44.4503°N, 4.0357°E)
Time: 08:40:49
(UTC+00:00)
Language:

Cosmos 2285 Rocket - Orbit

View from above orbital plane
View from above orbital plane
View from above satellite
View from above satellite

Ground track
Ground track

The orbit data is extracted from the following two-line orbital elements,

1 23190U 94045B   20330.08019115  .00000076  00000-0  10483-3 0  9992
2 23190  74.0277 179.7163 0019964 232.5424 127.3880 13.74092727319867
Epoch (UTC): 25 November 2020 01:55:28
Eccentricity: 0.0019964
inclination: 74.0277°
perigee height: 970 km
apogee height: 999 km
right ascension of ascending node: 179.7163°
argument of perigee: 232.5424°
revolutions per day: 13.74092727
mean anomaly at epoch: 127.3880°
orbit number at epoch: 31986

The dashed part of the orbit path shows where the satellite is in the earth's shadow,  

DLR